| time (UTC) | temp F | wind direction | speed knots | gust knots | rain 1hr in | rain 24hr in | rain mn in | humidity % | barometer mb |
| 20260506113124 | 59 | 281 | 1.7 | 2.6 | 0.00 | 0.11 | 0.00 | 31 | 1004.0 |
| 20260506112523 | 59 | 280 | 0.0 | 0.0 | 0.00 | 0.11 | 0.00 | 31 | 1004.0 |
| 20260506111925 | 59 | 280 | 0.0 | 2.6 | 0.00 | 0.11 | 0.00 | 32 | 1004.0 |
| 20260506110724 | 59 | 278 | 0.0 | 0.0 | 0.00 | 0.11 | 0.00 | 30 | 1004.0 |
| 20260506110124 | 59 | 278 | 2.6 | 2.6 | 0.00 | 0.11 | 0.00 | 29 | 1004.0 |
| 20260506105520 | 59 | 324 | 2.6 | 2.6 | 0.00 | 0.11 | 0.00 | 30 | 1004.0 |
| 20260506103717 | 60 | 290 | 1.7 | 1.7 | 0.00 | 0.11 | 0.00 | 29 | 1004.0 |
| 20260506103118 | 60 | 314 | 2.6 | 2.6 | 0.00 | 0.11 | 0.00 | 28 | 1004.0 |
| 20260506101318 | 60 | 283 | 1.7 | 1.7 | 0.00 | 0.11 | 0.00 | 38 | 1004.0 |
| 20260506100716 | 58 | 289 | 1.7 | 1.7 | 0.00 | 0.11 | 0.00 | 38 | 1005.0 |
| 20260506095518 | 57 | 284 | 1.7 | 1.7 | 0.00 | 0.11 | 0.00 | 39 | 1005.0 |
| 20260506094916 | 56 | 283 | 0.0 | 0.0 | 0.00 | 0.11 | 0.00 | 41 | 1005.0 |
| 20260506093716 | 56 | 114 | 0.0 | 2.6 | 0.00 | 0.11 | 0.00 | 51 | 1005.0 |
| 20260506093115 | 56 | 121 | 2.6 | 2.6 | 0.00 | 0.11 | 0.00 | 52 | 1005.0 |
| 20260506092512 | 56 | 120 | 2.6 | 2.6 | 0.00 | 0.11 | 0.00 | 52 | 1005.0 |
| 20260506091306 | 56 | 120 | 0.0 | 1.7 | 0.00 | 0.11 | 0.00 | 54 | 1005.0 |
| 20260506090658 | 56 | 120 | 0.0 | 0.0 | 0.00 | 0.11 | 0.00 | 55 | 1005.0 |
| 20260506084850 | 56 | 120 | 0.0 | 2.6 | 0.00 | 0.11 | 0.00 | 61 | 1005.0 |
| 20260506083643 | 55 | 120 | 0.0 | 1.7 | 0.00 | 0.11 | 0.00 | 64 | 1005.0 |
| 20260506081838 | 54 | 120 | 0.0 | 0.0 | 0.00 | 0.11 | 0.00 | 64 | 1005.0 |
| 20260506080634 | 54 | 121 | 0.0 | 2.6 | 0.00 | 0.11 | 0.00 | 64 | 1005.0 |
| 20260506073025 | 51 | 187 | 0.0 | 0.0 | 0.00 | 0.11 | 0.00 | 63 | 1005.0 |
| 20260506072425 | 51 | 188 | 0.0 | 0.0 | 0.00 | 0.11 | 0.00 | 62 | 1005.0 |
| 20260506071225 | 51 | 188 | 1.7 | 1.7 | 0.00 | 0.11 | 0.00 | 61 | 1005.0 |
| 20260506060624 | 49 | 187 | 0.0 | 0.0 | 0.00 | 0.11 | 0.00 | 61 | 1005.0 |
| 20260506050625 | 45 | 187 | 0.0 | 0.0 | 0.00 | 0.11 | 0.00 | 59 | 1005.0 |
| 20260506044825 | 44 | 187 | 0.0 | 0.0 | 0.00 | 0.11 | 0.00 | 58 | 1006.0 |
| 20260506043019 | 43 | 187 | 0.0 | 1.7 | 0.00 | 0.11 | 0.00 | 57 | 1006.0 |
| 20260506042419 | 43 | 187 | 1.7 | 2.6 | 0.00 | 0.11 | 0.00 | 56 | 1006.0 |
| 20260506041819 | 44 | 187 | 1.7 | 1.7 | 0.00 | 0.11 | 0.00 | 56 | 1006.0 |
| 20260506040616 | 44 | 187 | 2.6 | 2.6 | 0.00 | 0.11 | 0.00 | 55 | 1006.0 |
| 20260506040014 | 44 | 187 | 0.0 | 0.0 | 0.00 | 0.11 | 0.00 | 56 | 1006.0 |
| 20260506035410 | 44 | 187 | 0.0 | 0.0 | 0.00 | 0.11 | 0.00 | 55 | 1006.0 |
| 20260506034808 | 44 | 187 | 0.0 | 0.0 | 0.00 | 0.11 | 0.00 | 55 | 1006.0 |
| 20260506034207 | 44 | 187 | 0.0 | 0.0 | 0.00 | 0.11 | 0.00 | 55 | 1006.0 |
| 20260506033000 | 44 | 188 | 1.7 | 1.7 | 0.00 | 0.11 | 0.00 | 54 | 1006.0 |
| 20260506031151 | 44 | 188 | 0.0 | 0.0 | 0.00 | 0.11 | 0.00 | 54 | 1006.0 |
| 20260506030548 | 44 | 188 | 0.0 | 0.0 | 0.00 | 0.11 | 0.00 | 54 | 1006.0 |
| 20260506024735 | 44 | 187 | 0.0 | 1.7 | 0.00 | 0.11 | 0.00 | 54 | 1007.0 |
| 20260506023532 | 44 | 188 | 0.0 | 0.0 | 0.00 | 0.11 | 0.00 | 54 | 1007.0 |
| 20260506022928 | 44 | 188 | 0.0 | 0.0 | 0.00 | 0.11 | 0.00 | 54 | 1007.0 |
| 20260506022325 | 44 | 187 | 0.0 | 0.0 | 0.00 | 0.11 | 0.00 | 54 | 1007.0 |
| 20260506021726 | 44 | 187 | 0.0 | 0.0 | 0.00 | 0.11 | 0.00 | 53 | 1007.0 |
| 20260506021122 | 44 | 186 | 0.0 | 0.0 | 0.00 | 0.11 | 0.00 | 53 | 1007.0 |
| 20260506020516 | 43 | 188 | 0.0 | 0.0 | 0.00 | 0.11 | 0.00 | 53 | 1007.0 |
| 20260506015913 | 43 | 188 | 0.0 | 0.0 | 0.00 | 0.11 | 0.00 | 52 | 1007.0 |
| 20260506015311 | 43 | 187 | 0.0 | 0.0 | 0.00 | 0.11 | 0.00 | 52 | 1007.0 |
| 20260506014104 | 44 | 187 | 0.0 | 0.0 | 0.00 | 0.11 | 0.00 | 52 | 1007.0 |
| 20260506013503 | 44 | 188 | 0.0 | 0.0 | 0.00 | 0.11 | 0.00 | 52 | 1007.0 |
| 20260506012857 | 43 | 187 | 0.0 | 0.0 | 0.00 | 0.11 | 0.00 | 52 | 1007.0 |
| 20260506012255 | 43 | 188 | 0.0 | 0.0 | 0.00 | 0.11 | 0.00 | 52 | 1007.0 |
| 20260506011051 | 43 | 187 | 0.0 | 0.0 | 0.00 | 0.11 | 0.00 | 51 | 1007.0 |
| 20260506010450 | 43 | 188 | 0.0 | 0.0 | 0.00 | 0.11 | 0.00 | 51 | 1007.0 |
| 20260506005846 | 43 | 188 | 0.0 | 2.6 | 0.00 | 0.11 | 0.00 | 50 | 1007.0 |
| 20260506005247 | 43 | 187 | 0.0 | 0.0 | 0.00 | 0.11 | 0.00 | 50 | 1007.0 |
| 20260506004645 | 43 | 188 | 0.0 | 0.0 | 0.00 | 0.11 | 0.00 | 50 | 1007.0 |
| 20260506004043 | 44 | 188 | 0.0 | 0.0 | 0.00 | 0.11 | 0.00 | 50 | 1007.0 |
| 20260506002840 | 43 | 187 | 1.7 | 1.7 | 0.00 | 0.11 | 0.00 | 49 | 1008.0 |
| 20260506002240 | 44 | 187 | 0.0 | 0.0 | 0.00 | 0.11 | 0.00 | 49 | 1007.0 |
| 20260506001640 | 44 | 187 | 0.0 | 2.6 | 0.00 | 0.11 | 0.00 | 49 | 1007.0 |
| 20260506001041 | 44 | 187 | 1.7 | 1.7 | 0.00 | 0.11 | 0.00 | 49 | 1007.0 |
| 20260506000440 | 44 | 187 | 2.6 | 2.6 | 0.00 | 0.11 | 0.00 | 48 | 1008.0 |
| 20260505235840 | 44 | 187 | 2.6 | 2.6 | 0.00 | 0.11 | 0.00 | 49 | 1008.0 |
| 20260505235240 | 44 | 188 | 0.0 | 0.0 | 0.00 | 0.11 | 0.00 | 48 | 1008.0 |
| 20260505234640 | 44 | 187 | 0.0 | 1.7 | 0.00 | 0.11 | 0.00 | 48 | 1008.0 |
| 20260505234040 | 45 | 187 | 0.0 | 2.6 | 0.00 | 0.11 | 0.00 | 48 | 1008.0 |
| 20260505232833 | 46 | 188 | 0.0 | 0.0 | 0.00 | 0.11 | 0.00 | 48 | 1008.0 |
| 20260505232231 | 46 | 188 | 0.0 | 0.0 | 0.00 | 0.11 | 0.00 | 48 | 1008.0 |
| 20260505231027 | 46 | 188 | 0.0 | 0.0 | 0.00 | 0.11 | 0.00 | 47 | 1008.0 |
| 20260505230425 | 46 | 187 | 0.0 | 1.7 | 0.00 | 0.11 | 0.00 | 47 | 1008.0 |
| 20260505224009 | 49 | 188 | 0.0 | 0.0 | 0.00 | 0.11 | 0.00 | 46 | 1008.0 |
| 20260505222808 | 50 | 187 | 0.0 | 1.7 | 0.00 | 0.11 | 0.00 | 47 | 1008.0 |
| 20260505222204 | 50 | 188 | 1.7 | 2.6 | 0.00 | 0.11 | 0.00 | 47 | 1008.0 |
| 20260505221558 | 50 | 215 | 2.6 | 2.6 | 0.00 | 0.11 | 0.00 | 46 | 1008.0 |
| 20260505220955 | 51 | 153 | 3.5 | 3.5 | 0.00 | 0.11 | 0.00 | 46 | 1008.0 |
| 20260505215751 | 51 | 162 | 2.6 | 3.5 | 0.00 | 0.00 | 0.00 | 47 | 1008.0 |
| 20260505215148 | 50 | 204 | 1.7 | 2.6 | 0.00 | 0.00 | 0.00 | 51 | 1008.0 |
| 20260505214547 | 50 | 180 | 2.6 | 2.6 | 0.00 | 0.00 | 0.00 | 53 | 1008.0 |
| 20260505212736 | 50 | 214 | 2.6 | 2.6 | 0.00 | 0.00 | 0.00 | 57 | 1008.0 |
| 20260505211534 | 50 | 201 | 2.6 | 3.5 | 0.11 | 0.00 | 0.00 | 57 | 1008.0 |
| 20260505210928 | 50 | 230 | 2.6 | 2.6 | 0.11 | 0.00 | 0.00 | 57 | 1008.0 |
| 20260505205722 | 50 | 144 | 0.0 | 3.5 | 0.11 | 0.00 | 0.00 | 57 | 1008.0 |
| 20260505205120 | 50 | 216 | 1.7 | 2.6 | 0.11 | 0.00 | 0.00 | 58 | 1008.0 |
| 20260505204519 | 50 | 192 | 1.7 | 3.5 | 0.11 | 0.00 | 0.00 | 60 | 1008.0 |
| 20260505203916 | 50 | 209 | 2.6 | 2.6 | 0.11 | 0.00 | 0.00 | 60 | 1008.0 |
| 20260505203314 | 50 | 206 | 2.6 | 2.6 | 0.11 | 0.00 | 0.00 | 59 | 1008.0 |
| 20260505202713 | 50 | 285 | 1.7 | 2.6 | 0.11 | 0.00 | 0.00 | 60 | 1008.0 |
| 20260505202110 | 50 | 215 | 3.5 | 5.2 | 0.11 | 0.00 | 0.00 | 62 | 1008.0 |
| 20260505201508 | 50 | 127 | 0.0 | 4.3 | 0.11 | 0.00 | 0.00 | 64 | 1008.0 |
| 20260505200905 | 49 | 189 | 0.0 | 2.6 | 0.11 | 0.00 | 0.00 | 64 | 1008.0 |
| 20260505195703 | 49 | 198 | 0.0 | 1.7 | 0.11 | 0.00 | 0.00 | 63 | 1008.0 |
| 20260505195058 | 49 | 171 | 0.0 | 0.0 | 0.11 | 0.00 | 0.00 | 64 | 1008.0 |
| 20260505193900 | 49 | 171 | 0.0 | 1.7 | 0.11 | 0.00 | 0.00 | 64 | 1008.0 |
| 20260505193255 | 49 | 149 | 1.7 | 2.6 | 0.11 | 0.00 | 0.00 | 65 | 1008.0 |
| 20260505192046 | 49 | 164 | 2.6 | 3.5 | 0.11 | 0.00 | 0.00 | 64 | 1008.0 |
| 20260505190843 | 50 | 122 | 2.6 | 3.5 | 0.15 | 0.00 | 0.00 | 61 | 1008.0 |
| 20260505190238 | 50 | 192 | 2.6 | 3.5 | 0.15 | 0.00 | 0.00 | 58 | 1008.0 |
| 20260505185635 | 50 | 219 | 3.5 | 5.2 | 0.15 | 0.00 | 0.00 | 56 | 1008.0 |
| 20260505184426 | 51 | 191 | 5.2 | 5.2 | 0.00 | 0.00 | 0.00 | 47 | 1008.0 |
| 20260505183821 | 53 | 258 | 7.0 | 7.0 | 0.00 | 0.00 | 0.00 | 50 | 1007.0 |
| 20260505182618 | 54 | 260 | 0.0 | 0.0 | 0.00 | 0.00 | 0.00 | 51 | 1007.0 |
| 20260505181413 | 54 | 260 | 2.6 | 2.6 | 0.00 | 0.00 | 0.00 | 51 | 1007.0 |
| 20260505174410 | 55 | 260 | 2.6 | 2.6 | 0.00 | 0.00 | 0.00 | 47 | 1006.0 |
| 20260505173207 | 56 | 258 | 4.3 | 4.3 | 0.00 | 0.00 | 0.00 | 45 | 1006.0 |
| 20260505163805 | 60 | 239 | 1.7 | 1.7 | 0.00 | 0.00 | 0.00 | 33 | 1006.0 |
| 20260505152003 | 60 | 241 | 2.6 | 2.6 | 0.00 | 0.00 | 0.00 | 29 | 1006.0 |
| 20260505150803 | 60 | 240 | 0.0 | 2.6 | 0.00 | 0.00 | 0.00 | 26 | 1006.0 |
| 20260505124314 | 60 | 260 | 2.6 | 2.6 | 0.00 | 0.00 | 0.00 | 34 | 1006.0 |
| 20260505123706 | 59 | 261 | 0.0 | 0.0 | 0.00 | 0.00 | 0.00 | 36 | 1006.0 |
| 20260505123102 | 58 | 261 | 0.0 | 2.6 | 0.00 | 0.00 | 0.00 | 36 | 1006.0 |
| 20260505121257 | 59 | 262 | 0.0 | 2.6 | 0.00 | 0.00 | 0.00 | 36 | 1006.0 |
| 20260505115452 | 58 | 261 | 0.0 | 1.7 | 0.00 | 0.00 | 0.00 | 37 | 1006.0 |
| 20260505113641 | 57 | 261 | 0.0 | 1.7 | 0.00 | 0.00 | 0.00 | 40 | 1007.0 |